Regional Weather Roundup
Issued by NWS Goodland, KS

Home | Current Version | Previous Version | Graphics & Text | Print | Product List | Glossary On
Versions: 1 2 3 4 5 6 7 8 9 10 11 12 13 14 15 16 17 18 19 20 21 22 23 24 25 26 27 28 29 30 31 32 33 34 35 36 37 38 39 40 41 42 43 44 45 46 47 48 49 50
000
ASUS43 KGLD 242308
RWRGLD

GOODLAND FORECAST AREA HOURLY WEATHER ROUNDUP
NATIONAL WEATHER SERVICE GOODLAND KS
500 PM MDT SUN SEP 24 2017

...OFFICIAL OBSERVATIONS...

CITY           SKY/WX    TMP DP  RH WIND       PRES   REMARKS
GOODLAND KS    LGT RAIN  53  53 100 NE8       29.94S
HILL CITY KS   CLOUDY    64  61  90 N9        29.92R
IMPERIAL NEB   CLOUDY    53  50  89 NE13      29.98S
MCCOOK NEB     LGT RAIN  56  56 100 NE9       29.95F FOG
AKRON CO       CLOUDY    48  46  93 E12       29.98F FOG
BURLINGTON CO  CLOUDY    52  52 100 NE10      29.96R FOG
LIMON CO         N/A    N/A N/A N/A MISG        N/A
$$

...UNOFFICIAL OBSERVATIONS...

CITY           SKY/WX    TMP DP  RH WIND       PRES   REMARKS
LENORA KS        N/A     60  32  34 MISG        N/A
NORTON KS      CLOUDY    59  54  82 NE9       29.93R
SHARON SPRINGS   N/A     55  54  97 NE8         N/A
KIT CARSON CO    N/A     53  50  89 MISG        N/A
YUMA CO        CLOUDY    48  46  93 NE9       29.98R FOG
$$



USA.gov is the U.S. government's official web portal to all federal, state and local government web resources and services.